Погода в Демьяновом

Россия / Кировская область     60°21′22″N   47°05′01″E
темп.,
°C
ветер,
м/с
пор.,
м/с
влажн.,
%
обл.,
%
осадки,
мм/ч
давл.,
гПа
погр.,
м
12 апреля, пн
пн1200:00−1зюз210915 0.0 1033194
03:00−2зюз25945 0.0 103679
06:00−3зюз24926 0.0 103779
09:00+5зюз23735 0.0 1039345
12:00+8юз23565 0.0 1039841
15:00+9ююз35595 0.0 1038962
18:00+6ююв258719 0.0 103776
21:00+3ю3109179 0.0 1037163
13 апреля, вт
вт1300:00+2ю2109047 0.0 1037171
03:00+1ююв2997100 0.0 1035198
06:00+3ю41197100 0.0 1034385
09:00+6ю41393100 0.0 1032474
12:00+9ююз51087100 0.0 1030555
15:00+11ююз51083100 0.0 1028565
18:00+10ю41291100 0.0 1027463
21:00+9ююз41492100 0.0 1026467
14 апреля, ср
ср1400:00+8ююз31294100 0.0 1026326
03:00+6ююз31192100 0.0 1025236
06:00+6ююз31087100 0.0 1025232
09:00+12ююз4106723 0.0 1024381
12:00+16ююз51056100 0.0 1023867
15:00+17ююз5105687 0.0 10221027
18:00+14ююз5116316 0.0 1020480
21:00+10ююз4157598 0.0 1020382
15 апреля, чт
чт1500:00+8ююз31379100 0.0 1019327
03:00+7юз3118397 0.0 1019252
06:00+6з258865 0.0 1019118
09:00+9с4583100 0.0 1020675
12:00+5с4789100 0.0 1022553
15:00+4ссв2796100 0.6 1024483
18:00+5св1389100 0.1 1024400
21:00+3с2689100 0.1 1024180
16 апреля, пт
пт1600:00+1ссв298376 0.0 1025244
03:00−1ссв288541 0.0 1026185
06:000ссв28752 0.0 1026272
09:00+5ссв35490 0.0 10271140
12:00+7ссв34415 0.0 10261628
15:00+8с463641 0.0 10261987
18:00+6с36475 0.0 1027264
21:00+2сз210674 0.0 1027237